| time (UTC) | temp F | wind direction | speed MPH | gust MPH | rain 1hr in | rain 24hr in | rain mn in | humidity % | barometer mb |
| 20260903015722 | 84 | 135 | 0.0 | 0.0 | 0.00 | 0.00 | 0.00 | 62 | 1011.5 |
| 20260903014718 | 84 | 135 | 0.0 | 0.0 | 0.00 | 0.00 | 0.00 | 60 | 1011.5 |
| 20260903014508 | 84 | 137 | 0.0 | 0.0 | 0.00 | 0.00 | 0.00 | 60 | 1012.2 |
| 20260903013009 | 85 | 137 | 0.0 | 0.0 | 0.00 | 0.00 | 0.00 | 58 | 1012.0 |
| 20260903012552 | 86 | 135 | 0.0 | 0.0 | 0.00 | 0.00 | 0.00 | 56 | 1011.3 |
| 20260903011525 | 86 | 137 | 0.0 | 0.0 | 0.00 | 0.00 | 0.00 | 58 | 1012.0 |
| 20260903010433 | 87 | 135 | 0.0 | 0.0 | 0.00 | 0.00 | 0.00 | 55 | 1011.1 |
| 20260903010024 | 87 | 137 | 0.0 | 0.0 | 0.00 | 0.00 | 0.00 | 54 | 1011.9 |
| 20260903005407 | 89 | 135 | 0.0 | 0.0 | 0.00 | 0.00 | 0.00 | 52 | 1011.2 |
| 20260903004533 | 90 | 137 | 0.0 | 0.0 | 0.00 | 0.00 | 0.00 | 47 | 1012.0 |
| 20260903004344 | 91 | 135 | 0.0 | 0.0 | 0.00 | 0.00 | 0.00 | 47 | 1011.2 |
| 20260903003323 | 93 | 135 | 0.0 | 0.0 | 0.00 | 0.00 | 0.00 | 45 | 1011.2 |
| 20260903003026 | 92 | 137 | 0.0 | 1.0 | 0.00 | 0.00 | 0.00 | 43 | 1012.0 |
| 20260903001521 | 93 | 97 | 0.0 | 2.0 | 0.00 | 0.00 | 0.00 | 43 | 1011.9 |
| 20260903001231 | 94 | 93 | 0.0 | 0.0 | 0.00 | 0.00 | 0.00 | 43 | 1011.2 |
| 20260903000016 | 95 | 175 | 0.0 | 2.0 | 0.00 | 0.00 | 0.00 | 39 | 1012.0 |
| 20260902234515 | 95 | 264 | 0.0 | 3.0 | 0.00 | 0.00 | 0.00 | 37 | 1012.1 |
| 20260902233917 | 96 | 85 | 0.0 | 3.0 | 0.00 | 0.00 | 0.00 | 40 | 1011.4 |
| 20260902233009 | 96 | 128 | 0.0 | 2.0 | 0.00 | 0.00 | 0.00 | 38 | 1012.2 |
| 20260902232918 | 97 | 57 | 0.0 | 1.0 | 0.00 | 0.00 | 0.00 | 39 | 1011.5 |
| 20260902231849 | 98 | 136 | 0.0 | 2.0 | 0.00 | 0.00 | 0.00 | 39 | 1011.4 |
| 20260902231528 | 97 | 46 | 0.0 | 3.0 | 0.00 | 0.00 | 0.00 | 37 | 1012.2 |
| 20260902230834 | 98 | 61 | 0.0 | 4.0 | 0.00 | 0.00 | 0.00 | 36 | 1011.3 |
| 20260902230028 | 97 | 139 | 1.0 | 6.0 | 0.00 | 0.00 | 0.00 | 36 | 1012.2 |
| 20260902225853 | 97 | 120 | 0.0 | 4.0 | 0.00 | 0.00 | 0.00 | 36 | 1011.4 |
| 20260902224530 | 98 | 310 | 0.0 | 5.0 | 0.00 | 0.00 | 0.00 | 35 | 1012.2 |
| 20260902223735 | 98 | 293 | 0.0 | 4.0 | 0.00 | 0.00 | 0.00 | 38 | 1011.4 |
| 20260902223027 | 97 | 180 | 1.0 | 6.0 | 0.00 | 0.00 | 0.00 | 37 | 1012.3 |
| 20260902222703 | 97 | 181 | 0.0 | 4.0 | 0.00 | 0.00 | 0.00 | 39 | 1011.4 |
| 20260902221717 | 98 | 277 | 0.0 | 1.0 | 0.00 | 0.00 | 0.00 | 39 | 1011.5 |
| 20260902221526 | 97 | 280 | 0.0 | 3.0 | 0.00 | 0.00 | 0.00 | 39 | 1012.3 |
| 20260902220649 | 97 | 120 | 0.0 | 3.0 | 0.00 | 0.00 | 0.00 | 39 | 1011.6 |
| 20260902220020 | 96 | 63 | 1.0 | 4.0 | 0.00 | 0.00 | 0.00 | 38 | 1012.5 |
| 20260902215628 | 97 | 146 | 0.0 | 1.0 | 0.00 | 0.00 | 0.00 | 38 | 1011.7 |
| 20260902214519 | 98 | 132 | 0.0 | 3.0 | 0.00 | 0.00 | 0.00 | 38 | 1012.6 |
| 20260902213532 | 98 | 218 | 0.0 | 4.0 | 0.00 | 0.00 | 0.00 | 39 | 1011.8 |
| 20260902213015 | 97 | 127 | 1.0 | 5.0 | 0.00 | 0.00 | 0.00 | 39 | 1012.7 |
| 20260902212519 | 98 | 68 | 1.0 | 4.0 | 0.00 | 0.00 | 0.00 | 40 | 1011.8 |
| 20260902211531 | 97 | 296 | 0.0 | 2.0 | 0.00 | 0.00 | 0.00 | 38 | 1012.9 |
| 20260902211521 | 98 | 294 | 0.0 | 2.0 | 0.00 | 0.00 | 0.00 | 39 | 1011.9 |
| 20260902210537 | 98 | 170 | 0.0 | 4.0 | 0.00 | 0.00 | 0.00 | 38 | 1012.0 |
| 20260902210048 | 97 | 297 | 1.0 | 6.0 | 0.00 | 0.00 | 0.00 | 39 | 1013.1 |
| 20260902205559 | 97 | 65 | 1.0 | 7.0 | 0.00 | 0.00 | 0.00 | 39 | 1012.2 |
| 20260902204529 | 97 | 180 | 1.0 | 9.0 | 0.00 | 0.00 | 0.00 | 39 | 1013.3 |
| 20260902203425 | 97 | 79 | 1.0 | 5.0 | 0.00 | 0.00 | 0.00 | 41 | 1012.5 |
| 20260902203028 | 96 | 178 | 1.0 | 6.0 | 0.00 | 0.00 | 0.00 | 40 | 1013.5 |
| 20260902202425 | 97 | 127 | 0.0 | 2.0 | 0.00 | 0.00 | 0.00 | 41 | 1012.8 |
| 20260902201531 | 97 | 278 | 1.0 | 5.0 | 0.00 | 0.00 | 0.00 | 41 | 1013.7 |
| 20260902201433 | 97 | 186 | 0.0 | 4.0 | 0.00 | 0.00 | 0.00 | 41 | 1012.9 |
| 20260902200402 | 97 | 308 | 0.0 | 5.0 | 0.00 | 0.00 | 0.00 | 42 | 1013.2 |
| 20260902200032 | 97 | 86 | 2.0 | 6.0 | 0.00 | 0.00 | 0.00 | 41 | 1014.1 |
| 20260902195339 | 98 | 97 | 0.0 | 5.0 | 0.00 | 0.00 | 0.00 | 40 | 1013.4 |
| 20260902194533 | 97 | 128 | 1.0 | 5.0 | 0.00 | 0.00 | 0.00 | 42 | 1014.3 |
| 20260902193016 | 98 | 286 | 2.0 | 4.0 | 0.00 | 0.00 | 0.00 | 41 | 1014.6 |
| 20260902191515 | 97 | 59 | 0.0 | 5.0 | 0.00 | 0.00 | 0.00 | 42 | 1014.9 |
| 20260902191006 | 97 | 308 | 1.0 | 7.0 | 0.00 | 0.00 | 0.00 | 42 | 1014.2 |
| 20260902190014 | 96 | 157 | 0.0 | 7.0 | 0.00 | 0.00 | 0.00 | 43 | 1014.1 |
| 20260902190011 | 96 | 149 | 2.0 | 9.0 | 0.00 | 0.00 | 0.00 | 45 | 1015.0 |
| 20260902185020 | 98 | 302 | 0.0 | 5.0 | 0.00 | 0.00 | 0.00 | 43 | 1014.3 |
| 20260902184508 | 96 | 188 | 0.0 | 4.0 | 0.00 | 0.00 | 0.00 | 45 | 1015.2 |
| 20260902184018 | 97 | 132 | 0.0 | 5.0 | 0.00 | 0.00 | 0.00 | 44 | 1014.5 |
| 20260902183031 | 97 | 96 | 1.0 | 4.0 | 0.00 | 0.00 | 0.00 | 48 | 1015.5 |
| 20260902183003 | 97 | 92 | 0.0 | 3.0 | 0.00 | 0.00 | 0.00 | 49 | 1014.7 |
| 20260902182017 | 96 | 248 | 0.0 | 6.0 | 0.00 | 0.00 | 0.00 | 46 | 1014.9 |
| 20260902181530 | 95 | 15 | 1.0 | 7.0 | 0.00 | 0.00 | 0.00 | 44 | 1015.9 |
| 20260902181023 | 97 | 312 | 1.0 | 6.0 | 0.00 | 0.00 | 0.00 | 48 | 1015.0 |
| 20260902180026 | 95 | 109 | 1.0 | 6.0 | 0.00 | 0.00 | 0.00 | 52 | 1016.1 |
| 20260902174806 | 95 | 124 | 0.0 | 4.0 | 0.00 | 0.00 | 0.00 | 50 | 1015.4 |
| 20260902174526 | 93 | 179 | 1.0 | 4.0 | 0.00 | 0.00 | 0.00 | 49 | 1016.3 |
| 20260902173740 | 94 | 150 | 0.0 | 4.0 | 0.00 | 0.00 | 0.00 | 49 | 1015.5 |
| 20260902173023 | 94 | 214 | 0.0 | 4.0 | 0.00 | 0.00 | 0.00 | 48 | 1016.4 |
| 20260902172736 | 95 | 118 | 0.0 | 4.0 | 0.00 | 0.00 | 0.00 | 48 | 1015.7 |
| 20260902171743 | 94 | 112 | 0.0 | 5.0 | 0.00 | 0.00 | 0.00 | 50 | 1015.8 |
| 20260902171520 | 95 | 277 | 1.0 | 7.0 | 0.00 | 0.00 | 0.00 | 49 | 1016.6 |
| 20260902170714 | 93 | 120 | 1.0 | 5.0 | 0.00 | 0.00 | 0.00 | 47 | 1015.9 |
| 20260902170013 | 94 | 130 | 0.0 | 6.0 | 0.00 | 0.00 | 0.00 | 51 | 1016.8 |
| 20260902165645 | 94 | 328 | 0.0 | 4.0 | 0.00 | 0.00 | 0.00 | 54 | 1016.0 |
| 20260902164619 | 92 | 137 | 0.0 | 4.0 | 0.00 | 0.00 | 0.00 | 54 | 1016.1 |
| 20260902164516 | 92 | 90 | 2.0 | 5.0 | 0.00 | 0.00 | 0.00 | 54 | 1016.8 |
| 20260902163603 | 92 | 58 | 0.0 | 2.0 | 0.00 | 0.00 | 0.00 | 57 | 1016.1 |
| 20260902163030 | 92 | 153 | 0.0 | 3.0 | 0.00 | 0.00 | 0.00 | 53 | 1016.8 |
| 20260902162531 | 92 | 241 | 0.0 | 2.0 | 0.00 | 0.00 | 0.00 | 54 | 1016.0 |
| 20260902161533 | 92 | 101 | 0.0 | 3.0 | 0.00 | 0.00 | 0.00 | 56 | 1016.8 |
| 20260902160027 | 90 | 141 | 1.0 | 3.0 | 0.00 | 0.00 | 0.00 | 59 | 1017.1 |
| 20260902154529 | 89 | 316 | 0.0 | 3.0 | 0.00 | 0.00 | 0.00 | 64 | 1017.0 |
| 20260902154232 | 90 | 113 | 0.0 | 4.0 | 0.00 | 0.00 | 0.00 | 63 | 1016.2 |
| 20260902153253 | 89 | 294 | 0.0 | 4.0 | 0.00 | 0.00 | 0.00 | 66 | 1016.1 |
| 20260902153027 | 88 | 316 | 2.0 | 5.0 | 0.00 | 0.00 | 0.00 | 65 | 1017.0 |
| 20260902152245 | 88 | 150 | 0.0 | 2.0 | 0.00 | 0.00 | 0.00 | 69 | 1016.2 |
| 20260902151523 | 88 | 305 | 0.0 | 2.0 | 0.00 | 0.00 | 0.00 | 70 | 1017.0 |
| 20260902151306 | 88 | 236 | 0.0 | 3.0 | 0.00 | 0.00 | 0.00 | 70 | 1016.3 |
| 20260902150318 | 86 | 130 | 0.0 | 3.0 | 0.00 | 0.00 | 0.00 | 70 | 1016.2 |
| 20260902150017 | 86 | 320 | 0.0 | 4.0 | 0.00 | 0.00 | 0.00 | 70 | 1017.0 |
| 20260902145255 | 87 | 142 | 0.0 | 1.0 | 0.00 | 0.00 | 0.00 | 72 | 1016.3 |
| 20260902144530 | 86 | 188 | 1.0 | 3.0 | 0.00 | 0.00 | 0.00 | 72 | 1017.1 |
| 20260902144224 | 87 | 231 | 0.0 | 0.0 | 0.00 | 0.00 | 0.00 | 73 | 1016.2 |
| 20260902143245 | 84 | 4 | 0.0 | 1.0 | 0.00 | 0.00 | 0.00 | 77 | 1016.3 |
| 20260902143032 | 84 | 185 | 1.0 | 2.0 | 0.00 | 0.00 | 0.00 | 77 | 1017.0 |
| 20260902142215 | 83 | 359 | 0.0 | 1.0 | 0.00 | 0.00 | 0.00 | 79 | 1016.3 |
| 20260902141538 | 82 | 198 | 0.0 | 2.0 | 0.00 | 0.00 | 0.00 | 80 | 1017.0 |
| 20260902141156 | 82 | 240 | 0.0 | 1.0 | 0.00 | 0.00 | 0.00 | 83 | 1016.3 |
| 20260902140036 | 81 | 298 | 1.0 | 2.0 | 0.00 | 0.00 | 0.00 | 83 | 1017.0 |
| 20260902135020 | 80 | 206 | 0.0 | 0.0 | 0.00 | 0.00 | 0.00 | 85 | 1016.2 |
| 20260902134534 | 79 | 165 | 0.0 | 2.0 | 0.00 | 0.00 | 0.00 | 86 | 1017.0 |
| 20260902133027 | 77 | 117 | 0.0 | 2.0 | 0.00 | 0.00 | 0.00 | 88 | 1017.0 |
| 20260902132814 | 78 | 69 | 0.0 | 1.0 | 0.00 | 0.00 | 0.00 | 89 | 1016.2 |
| 20260902131540 | 75 | 103 | 0.0 | 0.0 | 0.00 | 0.00 | 0.00 | 90 | 1016.8 |
| 20260902130704 | 74 | 100 | 0.0 | 0.0 | 0.00 | 0.00 | 0.00 | 91 | 1015.9 |
| 20260902130024 | 73 | 103 | 0.0 | 0.0 | 0.00 | 0.00 | 0.00 | 90 | 1016.7 |
| 20260902125706 | 74 | 100 | 0.0 | 0.0 | 0.00 | 0.00 | 0.00 | 91 | 1015.9 |
| 20260902124652 | 73 | 100 | 0.0 | 0.0 | 0.00 | 0.00 | 0.00 | 91 | 1015.8 |
| 20260902124516 | 72 | 103 | 0.0 | 0.0 | 0.00 | 0.00 | 0.00 | 90 | 1016.7 |
| 20260902123707 | 73 | 100 | 0.0 | 0.0 | 0.00 | 0.00 | 0.00 | 90 | 1015.7 |
| 20260902123030 | 72 | 103 | 0.0 | 0.0 | 0.00 | 0.00 | 0.00 | 90 | 1016.5 |
| 20260902122719 | 73 | 100 | 0.0 | 0.0 | 0.00 | 0.00 | 0.00 | 90 | 1015.7 |
| 20260902121737 | 73 | 100 | 0.0 | 0.0 | 0.00 | 0.00 | 0.00 | 90 | 1015.6 |
| 20260902121531 | 72 | 103 | 0.0 | 0.0 | 0.00 | 0.00 | 0.00 | 89 | 1016.3 |
| 20260902120037 | 73 | 103 | 0.0 | 0.0 | 0.00 | 0.00 | 0.00 | 89 | 1016.2 |
| 20260902115631 | 73 | 100 | 0.0 | 0.0 | 0.00 | 0.00 | 0.00 | 89 | 1015.5 |
| 20260902114534 | 73 | 103 | 0.0 | 0.0 | 0.00 | 0.00 | 0.00 | 88 | 1016.2 |
| 20260902113428 | 73 | 100 | 0.0 | 0.0 | 0.00 | 0.00 | 0.00 | 88 | 1015.4 |
| 20260902113028 | 73 | 103 | 0.0 | 0.0 | 0.00 | 0.00 | 0.00 | 87 | 1016.1 |
| 20260902112424 | 73 | 100 | 0.0 | 0.0 | 0.00 | 0.00 | 0.00 | 88 | 1015.2 |
| 20260902111509 | 72 | 103 | 0.0 | 1.0 | 0.00 | 0.00 | 0.00 | 87 | 1016.1 |
| 20260902111440 | 73 | 100 | 0.0 | 0.0 | 0.00 | 0.00 | 0.00 | 88 | 1015.2 |
| 20260902110418 | 73 | 100 | 0.0 | 0.0 | 0.00 | 0.00 | 0.00 | 87 | 1015.3 |
| 20260902110028 | 73 | 103 | 0.0 | 0.0 | 0.00 | 0.00 | 0.00 | 87 | 1016.1 |
| 20260902104527 | 73 | 103 | 0.0 | 0.0 | 0.00 | 0.00 | 0.00 | 86 | 1016.2 |
| 20260902104239 | 73 | 100 | 0.0 | 0.0 | 0.00 | 0.00 | 0.00 | 86 | 1015.3 |
| 20260902103253 | 73 | 100 | 0.0 | 0.0 | 0.00 | 0.00 | 0.00 | 86 | 1015.3 |
| 20260902103022 | 73 | 103 | 0.0 | 0.0 | 0.00 | 0.00 | 0.00 | 85 | 1016.1 |
| 20260902102259 | 74 | 100 | 0.0 | 0.0 | 0.00 | 0.00 | 0.00 | 85 | 1015.3 |
| 20260902101519 | 73 | 103 | 0.0 | 0.0 | 0.00 | 0.00 | 0.00 | 85 | 1016.1 |
| 20260902101323 | 74 | 100 | 0.0 | 0.0 | 0.00 | 0.00 | 0.00 | 85 | 1015.2 |
| 20260902100309 | 74 | 100 | 0.0 | 0.0 | 0.00 | 0.00 | 0.00 | 85 | 1015.2 |
| 20260902100017 | 74 | 103 | 0.0 | 2.0 | 0.00 | 0.00 | 0.00 | 84 | 1016.0 |
| 20260902095318 | 74 | 100 | 0.0 | 0.0 | 0.00 | 0.00 | 0.00 | 85 | 1015.2 |
| 20260902094515 | 73 | 103 | 0.0 | 0.0 | 0.00 | 0.00 | 0.00 | 83 | 1016.1 |
| 20260902094316 | 74 | 100 | 0.0 | 0.0 | 0.00 | 0.00 | 0.00 | 84 | 1015.4 |
| 20260902093251 | 74 | 100 | 0.0 | 0.0 | 0.00 | 0.00 | 0.00 | 84 | 1015.4 |
| 20260902093009 | 74 | 103 | 0.0 | 0.0 | 0.00 | 0.00 | 0.00 | 83 | 1016.2 |
| 20260902092234 | 74 | 100 | 0.0 | 0.0 | 0.00 | 0.00 | 0.00 | 84 | 1015.5 |
| 20260902091517 | 74 | 103 | 0.0 | 0.0 | 0.00 | 0.00 | 0.00 | 82 | 1016.2 |
| 20260902091202 | 75 | 100 | 0.0 | 0.0 | 0.00 | 0.00 | 0.00 | 82 | 1015.6 |
| 20260902090207 | 75 | 100 | 0.0 | 0.0 | 0.00 | 0.00 | 0.00 | 82 | 1015.5 |
| 20260902090027 | 75 | 103 | 0.0 | 0.0 | 0.00 | 0.00 | 0.00 | 81 | 1016.3 |
| 20260902085227 | 75 | 100 | 0.0 | 0.0 | 0.00 | 0.00 | 0.00 | 81 | 1015.5 |
| 20260902084528 | 75 | 103 | 0.0 | 0.0 | 0.00 | 0.00 | 0.00 | 79 | 1016.3 |
| 20260902084157 | 76 | 100 | 0.0 | 0.0 | 0.00 | 0.00 | 0.00 | 80 | 1015.5 |
| 20260902083206 | 77 | 100 | 0.0 | 0.0 | 0.00 | 0.00 | 0.00 | 79 | 1015.5 |
| 20260902083026 | 77 | 103 | 0.0 | 2.0 | 0.00 | 0.00 | 0.00 | 78 | 1016.2 |
| 20260902082227 | 78 | 100 | 0.0 | 0.0 | 0.00 | 0.00 | 0.00 | 77 | 1015.5 |
| 20260902081531 | 78 | 103 | 0.0 | 2.0 | 0.00 | 0.00 | 0.00 | 75 | 1016.4 |
| 20260902081233 | 79 | 100 | 0.0 | 0.0 | 0.00 | 0.00 | 0.00 | 75 | 1015.6 |
| 20260902080247 | 79 | 105 | 0.0 | 1.0 | 0.00 | 0.00 | 0.00 | 74 | 1015.6 |
| 20260902080018 | 79 | 109 | 0.0 | 3.0 | 0.00 | 0.00 | 0.00 | 73 | 1016.5 |
| 20260902075234 | 79 | 82 | 0.0 | 1.0 | 0.00 | 0.00 | 0.00 | 74 | 1015.6 |
| 20260902074522 | 79 | 173 | 0.0 | 4.0 | 0.00 | 0.00 | 0.00 | 73 | 1016.4 |
| 20260902074245 | 79 | 176 | 0.0 | 2.0 | 0.00 | 0.00 | 0.00 | 74 | 1015.7 |
| 20260902073218 | 78 | 87 | 0.0 | 0.0 | 0.00 | 0.00 | 0.00 | 76 | 1015.6 |
| 20260902073013 | 77 | 121 | 0.0 | 2.0 | 0.00 | 0.00 | 0.00 | 76 | 1016.5 |
| 20260902072221 | 78 | 119 | 0.0 | 0.0 | 0.00 | 0.00 | 0.00 | 77 | 1015.5 |
| 20260902071531 | 77 | 152 | 0.0 | 0.0 | 0.00 | 0.00 | 0.00 | 77 | 1016.5 |
| 20260902071246 | 78 | 150 | 0.0 | 0.0 | 0.00 | 0.00 | 0.00 | 76 | 1015.6 |
| 20260902070244 | 78 | 150 | 0.0 | 0.0 | 0.00 | 0.00 | 0.00 | 76 | 1015.6 |
| 20260902070030 | 78 | 152 | 0.0 | 0.0 | 0.00 | 0.00 | 0.00 | 76 | 1016.3 |
| 20260902065220 | 79 | 150 | 0.0 | 0.0 | 0.00 | 0.00 | 0.00 | 75 | 1015.5 |
| 20260902064531 | 78 | 152 | 0.0 | 0.0 | 0.00 | 0.00 | 0.00 | 74 | 1016.4 |
| 20260902064203 | 79 | 150 | 0.0 | 0.0 | 0.00 | 0.00 | 0.00 | 75 | 1015.5 |
| 20260902063134 | 79 | 150 | 0.0 | 0.0 | 0.00 | 0.00 | 0.00 | 73 | 1015.6 |
| 20260902063028 | 79 | 152 | 0.0 | 0.0 | 0.00 | 0.00 | 0.00 | 73 | 1016.4 |
| 20260902062112 | 80 | 150 | 0.0 | 0.0 | 0.00 | 0.00 | 0.00 | 71 | 1015.6 |
| 20260902061541 | 80 | 152 | 0.0 | 3.0 | 0.00 | 0.00 | 0.00 | 70 | 1016.3 |
| 20260902061110 | 81 | 116 | 0.0 | 0.0 | 0.00 | 0.00 | 0.00 | 70 | 1015.6 |
| 20260902060119 | 81 | 108 | 0.0 | 1.0 | 0.00 | 0.00 | 0.00 | 70 | 1015.5 |
| 20260902060030 | 81 | 111 | 0.0 | 2.0 | 0.00 | 0.00 | 0.00 | 69 | 1016.2 |
| 20260902055052 | 82 | 148 | 0.0 | 0.0 | 0.00 | 0.00 | 0.00 | 69 | 1015.4 |
| 20260902054533 | 82 | 150 | 0.0 | 2.0 | 0.00 | 0.00 | 0.00 | 67 | 1016.1 |
| 20260902054027 | 82 | 148 | 0.0 | 0.0 | 0.00 | 0.00 | 0.00 | 67 | 1015.4 |
| 20260902053019 | 82 | 136 | 1.0 | 3.0 | 0.00 | 0.00 | 0.00 | 66 | 1016.1 |
| 20260902053016 | 83 | 134 | 0.0 | 3.0 | 0.00 | 0.00 | 0.00 | 67 | 1015.2 |
| 20260902052001 | 83 | 139 | 0.0 | 3.0 | 0.00 | 0.00 | 0.00 | 67 | 1015.2 |
| 20260902051515 | 82 | 201 | 0.0 | 4.0 | 0.00 | 0.00 | 0.00 | 66 | 1016.0 |
| 20260902051003 | 83 | 133 | 0.0 | 3.0 | 0.00 | 0.00 | 0.00 | 67 | 1015.3 |
| 20260902050043 | 83 | 122 | 0.0 | 4.0 | 0.00 | 0.00 | 0.00 | 66 | 1016.1 |
| 20260902050008 | 83 | 120 | 0.0 | 0.0 | 0.00 | 0.00 | 0.00 | 67 | 1015.4 |
| 20260902045004 | 84 | 127 | 0.0 | 4.0 | 0.00 | 0.00 | 0.00 | 66 | 1015.3 |
| 20260902044533 | 83 | 155 | 0.0 | 6.0 | 0.00 | 0.00 | 0.00 | 66 | 1016.0 |
| 20260902043030 | 84 | 175 | 0.0 | 7.0 | 0.00 | 0.00 | 0.00 | 65 | 1016.0 |
| 20260902042902 | 84 | 129 | 0.0 | 5.0 | 0.00 | 0.00 | 0.00 | 65 | 1015.2 |
| 20260902041923 | 85 | 136 | 1.0 | 5.0 | 0.00 | 0.00 | 0.00 | 64 | 1015.1 |
| 20260902041537 | 84 | 168 | 1.0 | 7.0 | 0.00 | 0.00 | 0.00 | 63 | 1015.8 |
| 20260902040024 | 84 | 136 | 2.0 | 6.0 | 0.00 | 0.00 | 0.00 | 62 | 1015.8 |
| 20260902035756 | 85 | 117 | 1.0 | 5.0 | 0.00 | 0.00 | 0.00 | 63 | 1015.1 |
| 20260902034724 | 85 | 146 | 1.0 | 5.0 | 0.00 | 0.00 | 0.00 | 61 | 1015.1 |
| 20260902034524 | 85 | 153 | 1.0 | 7.0 | 0.00 | 0.00 | 0.00 | 61 | 1015.9 |
| 20260902033716 | 86 | 121 | 0.0 | 4.0 | 0.00 | 0.00 | 0.00 | 61 | 1015.0 |
| 20260902033017 | 85 | 130 | 0.0 | 3.0 | 0.00 | 0.00 | 0.00 | 60 | 1015.5 |
| 20260902032644 | 86 | 117 | 0.0 | 5.0 | 0.00 | 0.00 | 0.00 | 60 | 1014.7 |
| 20260902031618 | 86 | 106 | 0.0 | 5.0 | 0.00 | 0.00 | 0.00 | 59 | 1014.6 |
| 20260902031514 | 86 | 155 | 0.0 | 7.0 | 0.00 | 0.00 | 0.00 | 59 | 1015.3 |
| 20260902030623 | 86 | 117 | 0.0 | 4.0 | 0.00 | 0.00 | 0.00 | 59 | 1014.6 |
| 20260902030013 | 86 | 135 | 2.0 | 3.0 | 0.00 | 0.00 | 0.00 | 58 | 1015.1 |
| 20260902025626 | 86 | 129 | 0.0 | 3.0 | 0.00 | 0.00 | 0.00 | 59 | 1014.4 |
| 20260902024633 | 86 | 136 | 0.0 | 2.0 | 0.00 | 0.00 | 0.00 | 59 | 1014.1 |
| 20260902024511 | 86 | 171 | 1.0 | 3.0 | 0.00 | 0.00 | 0.00 | 58 | 1014.8 |
| 20260902023639 | 87 | 122 | 0.0 | 1.0 | 0.00 | 0.00 | 0.00 | 59 | 1013.9 |
| 20260902023016 | 86 | 156 | 1.0 | 3.0 | 0.00 | 0.00 | 0.00 | 58 | 1014.6 |
| 20260902022644 | 86 | 103 | 0.0 | 1.0 | 0.00 | 0.00 | 0.00 | 60 | 1013.9 |
| 20260902021647 | 86 | 126 | 0.0 | 1.0 | 0.00 | 0.00 | 0.00 | 60 | 1013.8 |
| 20260902021530 | 85 | 149 | 0.0 | 0.0 | 0.00 | 0.00 | 0.00 | 59 | 1014.4 |
| 20260902020035 | 86 | 149 | 0.0 | 0.0 | 0.00 | 0.00 | 0.00 | 60 | 1014.2 |